Temp
-9 -9 -9 -9 -10 -10 -10 -11 -11 -11 -11 -11 -10 -10 -10 -10 -10 -10 -10 -10 -10 -10 -10 -11 -11 -11 -10 -10 -10 -10 -10 -10 -10 -10 -11 -11 -11 -12 -12 -13 -14 -15 -15 -16 -17
-9 -9 -9 -10 -10 -10 -11 -11 -11 -11 -11 -11 -11 -11 -10 -10 -11 -10 -10 -11 -11 -10 -11 -11 -11 -10 -10 -10 -10 -10 -10 -10 -10 -10 -11 -11 -11 -12 -12 -14 -15 -16 -16 -17 -18
-9 -10 -10 -10 -10 -11 -11 -11 -11 -11 -11 -11 -11 -11 -11 -11 -11 -11 -11 -11 -11 -11 -11 -11 -11 -11 -11 -11 -11 -11 -10 -10 -10 -11 -11 -11 -11 -12 -12 -14 -15 -16 -17 -18 -19
-10 -10 -10 -11 -11 -11 -11 -11 -11 -11 -11 -11 -11 -11 -11 -11 -11 -11 -11 -11 -11 -11 -11 -11 -11 -11 -11 -11 -11 -11 -11 -11 -11 -11 -12 -12 -12 -12 -13 -15 -15 -16 -18 -18 -19
-10 -11 -11 -11 -11 -12 -12 -12 -11 -11 -11 -11 -11 -11 -11 -11 -11 -11 -11 -11 -11 -11 -11 -11 -11 -11 -11 -11 -11 -11 -11 -11 -11 -11 -11 -12 -12 -12 -14 -15 -16 -17 -18 -19 -20
-11 -11 -11 -11 -12 -12 -12 -12 -12 -11 -11 -11 -11 -11 -11 -11 -11 -11 -11 -11 -11 -11 -11 -11 -11 -11 -11 -11 -11 -11 -12 -12 -12 -11 -12 -13 -13 -13 -14 -16 -18 -18 -18 -19 -21
-12 -12 -12 -12 -12 -12 -12 -12 -12 -12 -12 -11 -12 -12 -11 -11 -11 -11 -11 -11 -11 -11 -11 -11 -11 -11 -11 -12 -12 -12 -12 -12 -12 -12 -12 -12 -15 -14 -14 -15 -17 -18 -18 -20 -21
-12 -13 -13 -13 -13 -13 -13 -12 -12 -12 -12 -12 -12 -12 -12 -11 -11 -12 -12 -12 -12 -12 -12 -11 -11 -12 -12 -12 -12 -12 -12 -13 -12 -12 -12 -12 -14 -15 -15 -16 -18 -18 -19 -19 -21
-13 -14 -14 -14 -13 -13 -13 -13 -12 -12 -12 -12 -12 -12 -12 -12 -12 -12 -12 -12 -12 -12 -12 -12 -12 -12 -12 -12 -12 -12 -12 -13 -13 -12 -13 -13 -15 -14 -15 -15 -17 -18 -19 -19 -20
-14 -14 -14 -14 -14 -13 -13 -13 -12 -12 -12 -12 -12 -12 -12 -12 -12 -12 -12 -12 -12 -12 -12 -12 -12 -12 -12 -12 -12 -12 -12 -13 -13 -12 -13 -13 -15 -15 -15 -16 -17 -18 -19 -19 -20
-14 -14 -14 -14 -14 -13 -13 -13 -13 -13 -13 -12 -12 -12 -13 -13 -12 -13 -13 -13 -13 -13 -13 -12 -12 -13 -13 -13 -13 -13 -13 -13 -13 -13 -13 -14 -15 -15 -15 -16 -16 -18 -19 -19 -20
-14 -14 -14 -14 -14 -13 -13 -13 -13 -13 -13 -13 -13 -13 -13 -13 -13 -13 -13 -13 -13 -13 -13 -13 -13 -13 -13 -13 -13 -13 -13 -13 -13 -13 -13 -13 -15 -16 -16 -17 -17 -17 -19 -19 -20
-14 -14 -15 -14 -14 -14 -14 -13 -13 -13 -13 -13 -13 -13 -13 -13 -13 -13 -13 -13 -13 -13 -13 -13 -13 -14 -14 -14 -13 -14 -13 -13 -13 -13 -14 -13 -14 -16 -16 -17 -17 -17 -19 -19 -20
-14 -14 -15 -15 -14 -14 -14 -13 -13 -13 -13 -13 -13 -13 -13 -14 -14 -14 -14 -14 -14 -14 -14 -14 -14 -14 -14 -14 -14 -14 -14 -14 -14 -14 -14 -14 -13 -16 -16 -17 -17 -17 -19 -19 -20
-14 -15 -14 -14 -14 -14 -14 -14 -13 -13 -13 -13 -13 -14 -14 -14 -14 -14 -14 -14 -14 -14 -15 -15 -14 -14 -14 -15 -15 -14 -14 -14 -14 -14 -14 -14 -14 -17 -16 -17 -17 -18 -18 -20 -20
-14 -14 -14 -14 -14 -14 -14 -14 -14 -14 -14 -14 -14 -14 -14 -14 -14 -14 -15 -15 -15 -15 -15 -15 -15 -15 -15 -15 -15 -15 -15 -15 -14 -14 -14 -14 -15 -17 -17 -16 -18 -18 -18 -20 -20
-15 -15 -15 -14 -14 -14 -14 -14 -14 -14 -14 -14 -15 -15 -15 -15 -15 -15 -15 -16 -16 -15 -15 -15 -15 -15 -15 -16 -16 -16 -16 -15 -15 -15 -15 -15 -15 -17 -18 -17 -18 -19 -19 -20 -21
-15 -15 -15 -15 -15 -15 -15 -15 -15 -15 -15 -15 -15 -15 -15 -15 -15 -15 -16 -16 -16 -16 -16 -16 -16 -16 -16 -16 -16 -16 -16 -16 -16 -16 -15 -16 -16 -16 -18 -17 -18 -19 -20 -20 -21
-15 -15 -15 -15 -15 -15 -15 -15 -15 -15 -15 -15 -15 -15 -15 -16 -16 -16 -16 -16 -16 -16 -16 -16 -16 -16 -16 -16 -17 -17 -17 -17 -17 -16 -16 -15 -15 -16 -19 -18 -18 -19 -20 -21 -21
-15 -15 -15 -15 -16 -16 -16 -15 -16 -16 -16 -16 -16 -16 -16 -16 -17 -16 -16 -16 -17 -17 -17 -17 -17 -16 -16 -17 -17 -17 -18 -18 -17 -17 -17 -15 -15 -17 -19 -18 -18 -19 -21 -21 -22
-15 -15 -15 -16 -16 -16 -16 -16 -16 -16 -16 -16 -16 -16 -17 -17 -17 -16 -16 -17 -17 -17 -17 -17 -17 -16 -17 -17 -18 -18 -18 -18 -18 -18 -18 -17 -15 -19 -20 -19 -19 -19 -21 -21 -22
-16 -16 -16 -16 -16 -16 -16 -16 -16 -17 -17 -17 -17 -17 -17 -17 -17 -17 -17 -18 -18 -18 -18 -18 -17 -17 -17 -18 -18 -18 -18 -19 -18 -19 -18 -18 -14 -20 -19 -20 -20 -20 -21 -22 -22
-16 -16 -16 -16 -16 -16 -16 -16 -16 -16 -17 -17 -17 -17 -17 -17 -18 -17 -18 -18 -18 -19 -18 -18 -18 -18 -18 -18 -19 -18 -19 -19 -19 -18 -18 -19 -17 -20 -20 -20 -20 -21 -22 -22 -23
-17 -17 -17 -16 -17 -16 -16 -16 -16 -17 -17 -18 -17 -17 -18 -18 -18 -17 -18 -18 -18 -19 -18 -19 -18 -18 -19 -19 -19 -19 -18 -19 -19 -18 -21 -18 -19 -21 -22 -20 -21 -21 -22 -23 -23
-17 -17 -17 -16 -17 -17 -17 -17 -17 -17 -17 -17 -17 -18 -18 -18 -18 -18 -19 -19 -19 -19 -19 -19 -19 -19 -19 -19 -19 -19 -19 -19 -19 -21 -21 -19 -20 -21 -21 -21 -22 -23 -23 -23 -23
-17 -17 -17 -17 -17 -17 -17 -17 -17 -18 -18 -18 -18 -19 -19 -18 -20 -20 -20 -20 -19 -19 -20 -20 -19 -19 -18 -19 -19 -18 -18 -19 -21 -22 -22 -21 -19 -24 -22 -22 -22 -23 -23 -23 -24
-18 -18 -18 -17 -18 -17 -18 -18 -18 -19 -18 -19 -19 -19 -19 -19 -20 -20 -20 -20 -20 -20 -20 -20 -20 -20 -19 -19 -19 -17 -18 -20 -21 -23 -23 -22 -22 -22 -22 -22 -23 -23 -24 -24 -24
Height
5787 5788 5789 5790 5792 5793 5795 5797 5799 5801 5802 5804 5805 5806 5806 5806 5806 5806 5806 5805 5804 5802 5801 5799 5797 5795 5793 5790 5789 5786 5783 5778 5776 5772 5768 5762 5754 5743 5735 5729 5719 5711 5697 5684 5684
5785 5785 5786 5787 5789 5790 5792 5794 5796 5798 5800 5801 5802 5803 5804 5803 5803 5803 5802 5801 5800 5798 5797 5795 5793 5790 5787 5785 5783 5780 5775 5771 5769 5764 5759 5753 5744 5734 5723 5714 5706 5696 5681 5669 5663
5781 5782 5783 5785 5786 5787 5789 5791 5793 5795 5797 5798 5799 5799 5800 5800 5800 5798 5798 5797 5795 5793 5791 5789 5786 5784 5782 5779 5775 5772 5768 5764 5759 5756 5750 5744 5735 5729 5720 5710 5693 5683 5667 5649 5644
5777 5778 5780 5781 5783 5784 5786 5788 5790 5792 5794 5795 5796 5796 5796 5796 5797 5795 5794 5793 5791 5789 5786 5783 5781 5778 5775 5772 5769 5765 5760 5755 5750 5745 5739 5733 5723 5715 5704 5697 5684 5669 5656 5643 5633
5774 5775 5776 5778 5780 5781 5783 5785 5787 5789 5791 5792 5792 5792 5792 5792 5792 5791 5789 5788 5786 5784 5781 5777 5775 5772 5769 5766 5762 5758 5752 5747 5741 5737 5730 5723 5713 5705 5694 5684 5671 5658 5642 5633 5623
5770 5771 5773 5774 5776 5779 5780 5782 5784 5786 5787 5788 5788 5788 5788 5788 5787 5786 5784 5782 5780 5777 5774 5771 5768 5765 5762 5759 5755 5750 5744 5739 5732 5727 5720 5711 5702 5693 5685 5673 5662 5649 5635 5623 5617
5765 5767 5769 5771 5773 5775 5777 5779 5781 5782 5783 5783 5783 5784 5784 5784 5782 5780 5778 5776 5773 5770 5768 5765 5762 5759 5755 5751 5746 5741 5736 5730 5723 5717 5710 5703 5693 5683 5675 5663 5654 5642 5629 5618 5609
5761 5763 5765 5767 5769 5772 5774 5776 5777 5778 5779 5779 5779 5779 5778 5777 5775 5774 5772 5770 5767 5764 5761 5758 5754 5751 5747 5743 5738 5733 5729 5723 5716 5709 5701 5695 5686 5673 5665 5655 5646 5635 5625 5614 5603
5757 5759 5761 5764 5766 5768 5771 5772 5773 5774 5774 5774 5774 5774 5772 5771 5770 5767 5766 5763 5760 5757 5754 5750 5747 5743 5740 5736 5731 5725 5720 5714 5707 5700 5693 5686 5679 5667 5659 5648 5639 5629 5621 5612 5601
5755 5757 5759 5761 5763 5765 5767 5769 5769 5769 5770 5769 5768 5769 5766 5765 5763 5761 5758 5756 5753 5749 5747 5743 5739 5735 5732 5727 5722 5716 5713 5707 5699 5692 5684 5676 5668 5658 5651 5642 5633 5624 5614 5605 5596
5753 5755 5757 5759 5761 5762 5764 5765 5767 5766 5765 5764 5763 5762 5760 5759 5756 5754 5751 5748 5745 5742 5739 5735 5732 5727 5723 5719 5714 5707 5702 5697 5691 5683 5677 5669 5662 5651 5643 5636 5627 5617 5607 5599 5592
5752 5753 5755 5756 5757 5758 5759 5760 5760 5761 5760 5758 5756 5755 5754 5752 5749 5746 5743 5741 5737 5733 5729 5727 5723 5718 5714 5710 5705 5699 5693 5688 5684 5677 5669 5660 5654 5644 5636 5628 5620 5610 5601 5593 5587
5750 5751 5751 5752 5753 5754 5754 5754 5754 5753 5753 5752 5750 5749 5747 5744 5742 5738 5735 5732 5728 5724 5721 5718 5714 5709 5705 5700 5696 5690 5683 5678 5673 5668 5662 5652 5647 5637 5628 5619 5612 5604 5595 5586 5580
5747 5748 5748 5748 5750 5748 5748 5748 5747 5745 5744 5745 5743 5742 5738 5735 5734 5731 5726 5723 5720 5717 5712 5710 5705 5700 5695 5691 5686 5682 5675 5667 5662 5656 5651 5644 5636 5629 5620 5614 5606 5597 5590 5581 5573
5743 5743 5743 5743 5743 5742 5742 5740 5738 5737 5735 5737 5735 5731 5729 5728 5724 5723 5718 5714 5710 5708 5705 5700 5696 5691 5685 5681 5676 5672 5665 5658 5652 5645 5641 5636 5629 5621 5613 5604 5596 5589 5582 5574 5567
5736 5736 5736 5736 5735 5734 5733 5731 5730 5731 5727 5727 5724 5723 5721 5718 5714 5711 5709 5705 5701 5698 5695 5690 5686 5682 5675 5671 5666 5660 5654 5647 5641 5635 5629 5624 5618 5612 5602 5594 5587 5581 5574 5567 5559
5729 5728 5728 5727 5726 5725 5723 5722 5722 5721 5719 5717 5715 5713 5711 5708 5704 5701 5699 5696 5691 5686 5685 5681 5677 5672 5666 5659 5655 5650 5644 5634 5629 5623 5618 5612 5607 5601 5591 5583 5578 5572 5564 5558 5552
5719 5719 5718 5717 5716 5715 5714 5713 5711 5712 5708 5706 5704 5701 5700 5698 5694 5690 5688 5687 5682 5677 5672 5668 5667 5662 5657 5651 5644 5640 5634 5628 5614 5611 5608 5600 5596 5593 5583 5574 5568 5563 5555 5550 5544
5710 5710 5708 5707 5706 5704 5703 5702 5701 5701 5697 5694 5692 5688 5688 5687 5681 5678 5676 5674 5672 5668 5663 5655 5654 5651 5646 5640 5635 5627 5624 5618 5607 5601 5595 5591 5584 5581 5569 5563 5556 5553 5548 5541 5536
5699 5698 5697 5696 5694 5692 5690 5692 5690 5688 5684 5682 5680 5676 5674 5673 5669 5665 5661 5662 5658 5655 5649 5644 5637 5638 5634 5628 5623 5617 5612 5606 5597 5585 5580 5578 5570 5571 5558 5552 5545 5542 5537 5532 5525
5687 5685 5687 5683 5681 5680 5679 5679 5677 5676 5672 5669 5666 5663 5661 5659 5655 5651 5647 5647 5643 5640 5635 5631 5625 5625 5621 5616 5610 5605 5600 5594 5588 5578 5568 5560 5560 5561 5545 5540 5533 5531 5525 5520 5514
5674 5672 5674 5671 5669 5667 5667 5664 5664 5663 5661 5656 5653 5650 5647 5643 5639 5637 5635 5633 5629 5625 5619 5616 5609 5609 5607 5603 5597 5592 5587 5581 5575 5566 5557 5553 5550 5548 5535 5529 5521 5518 5511 5507 5502
5660 5659 5660 5658 5655 5655 5653 5649 5647 5649 5647 5643 5639 5637 5635 5631 5624 5623 5620 5620 5614 5611 5604 5603 5596 5595 5591 5590 5583 5576 5574 5565 5560 5552 5549 5535 5537 5529 5523 5514 5511 5505 5499 5494 5490
5647 5644 5646 5644 5644 5641 5638 5637 5637 5635 5631 5627 5624 5623 5621 5615 5612 5609 5606 5603 5600 5596 5589 5586 5583 5583 5579 5575 5569 5562 5559 5550 5545 5537 5530 5526 5520 5518 5507 5499 5497 5492 5486 5481 5477
5633 5631 5630 5628 5630 5626 5624 5623 5625 5621 5617 5613 5612 5611 5605 5600 5599 5596 5593 5589 5586 5583 5575 5570 5567 5566 5565 5560 5552 5548 5543 5535 5530 5525 5509 5517 5499 5506 5491 5488 5483 5479 5474 5469 5464
5617 5615 5613 5612 5611 5610 5608 5612 5608 5606 5603 5600 5597 5595 5591 5589 5588 5581 5577 5574 5571 5568 5561 5556 5550 5547 5549 5542 5535 5532 5529 5523 5517 5509 5499 5496 5494 5486 5481 5475 5472 5466 5460 5455 5450
5599 5598 5595 5597 5596 5595 5598 5596 5594 5589 5590 5587 5582 5578 5577 5577 5570 5569 5563 5560 5556 5554 5548 5540 5535 5528 5523 5523 5517 5516 5522 5509 5504 5496 5487 5479 5481 5474 5467 5459 5456 5451 5445 5441 5436
Wind_Speed
11 11 12 13 14 15 20 22 21 18 15 13 11 10 8 9 10 12 14 18 17 19 22 24 25 25 25 27 29 32 34 36 37 39 42 46 52 56 57 59 62 61 63 55 43
12 13 14 15 16 17 22 23 22 18 15 13 10 10 12 13 12 14 15 16 18 21 24 25 26 27 27 29 31 33 35 37 39 41 44 47 54 57 60 59 62 59 59 50 36
15 14 15 16 17 19 24 24 22 20 15 13 12 12 14 15 14 15 17 18 20 24 26 26 29 28 28 30 33 34 37 38 40 41 44 46 52 55 58 57 62 59 56 49 34
17 17 17 19 19 22 24 24 22 20 16 14 15 15 15 16 17 18 20 20 23 25 28 28 30 31 31 32 33 35 38 41 43 44 47 46 52 57 59 57 60 60 53 44 36
17 18 19 20 20 23 23 23 22 19 17 17 16 16 16 18 19 20 22 23 25 26 28 30 31 33 32 33 35 36 40 43 45 45 48 48 52 55 58 58 58 55 54 46 34
18 19 20 20 22 24 24 23 21 19 18 18 16 17 18 20 21 23 24 25 27 29 30 32 33 34 35 36 38 38 39 42 46 46 48 50 51 57 59 57 53 52 52 47 32
21 21 21 21 23 24 24 22 21 20 19 18 17 17 18 20 23 25 25 28 30 30 31 33 34 35 37 38 38 39 41 43 46 46 49 49 47 56 58 58 53 49 49 44 33
20 20 21 24 25 24 23 22 20 20 18 18 18 19 22 24 27 27 27 28 30 30 32 34 35 36 38 39 40 40 40 42 45 46 49 48 49 54 55 55 52 49 47 44 35
14 17 21 23 22 22 22 22 21 20 19 19 19 21 23 25 25 28 28 29 30 32 34 35 36 38 39 39 40 40 41 43 46 47 49 50 50 54 55 56 55 50 46 45 39
11 15 19 20 21 21 21 22 20 20 19 17 19 22 24 26 28 30 29 31 32 33 34 35 38 39 40 40 40 41 40 42 46 47 49 52 53 54 53 53 55 50 48 44 43
12 15 18 20 21 21 20 21 19 19 18 17 16 18 22 24 29 25 32 34 34 34 34 36 38 41 41 40 40 42 42 44 47 47 48 52 51 53 53 53 55 50 48 44 42
14 17 19 20 21 22 21 21 20 20 20 21 23 24 24 30 24 30 32 34 35 36 37 38 39 42 43 42 41 42 44 44 45 46 48 50 50 50 51 51 52 52 48 45 40
17 19 19 20 21 21 22 23 25 25 24 24 26 27 32 25 29 32 35 37 38 38 39 39 41 43 44 43 43 44 47 47 48 46 48 50 51 48 51 52 52 51 47 44 41
19 21 21 20 22 23 25 28 29 30 29 30 30 30 31 28 33 35 37 39 38 39 41 41 42 44 44 44 44 44 47 49 49 50 49 51 54 50 52 51 49 51 46 43 40
23 23 25 27 27 29 31 34 35 35 36 35 33 34 31 37 39 36 39 40 41 41 42 43 43 44 46 45 46 46 47 50 50 51 52 52 52 49 53 52 49 50 47 42 38
27 30 32 33 33 36 38 39 40 38 41 38 37 35 37 39 40 42 40 40 42 43 43 43 44 45 46 47 47 47 48 52 52 53 52 52 53 53 53 55 48 50 49 44 39
33 35 36 39 40 41 42 42 43 40 41 42 39 39 40 40 42 41 41 39 41 44 43 45 45 46 48 49 48 47 49 54 56 56 55 55 53 54 53 55 50 49 48 46 41
35 37 39 41 43 43 43 45 45 42 43 44 44 44 43 43 44 43 44 40 40 43 48 49 47 47 48 49 50 47 48 52 59 58 56 56 56 54 53 54 56 48 46 46 43
36 38 40 41 43 44 45 46 45 43 44 45 46 47 45 44 46 47 47 44 44 46 50 54 52 50 49 52 49 50 50 53 58 60 58 57 57 56 51 55 58 51 45 46 42
38 39 39 41 42 44 45 45 45 45 48 48 48 50 49 48 50 51 52 50 50 49 52 54 55 51 52 51 50 51 53 54 59 62 63 58 58 52 54 59 59 54 49 44 43
43 43 42 44 45 46 46 45 46 46 48 50 50 51 52 52 52 53 55 53 52 51 54 54 56 54 54 52 52 54 55 56 57 60 64 64 61 48 56 57 61 56 52 47 42
46 47 44 45 47 46 45 46 46 45 46 49 49 50 50 51 53 53 53 51 53 53 54 55 60 57 56 54 55 57 57 58 59 62 65 62 61 50 59 57 61 55 52 48 43
49 48 44 43 45 44 46 47 47 43 43 45 47 48 48 49 52 51 51 50 52 53 57 59 61 59 56 57 60 62 60 61 61 63 63 63 62 58 59 62 59 54 53 48 43
49 50 47 47 45 47 48 48 46 46 48 50 53 52 52 54 54 57 56 57 57 59 62 63 61 57 59 60 62 65 62 63 64 65 56 65 60 56 59 65 58 57 54 48 43
51 53 54 56 54 55 55 55 47 46 49 53 52 50 52 53 53 53 55 56 56 57 61 63 62 63 63 64 66 64 65 65 64 56 63 61 66 57 64 63 59 56 52 48 44
57 59 59 57 57 55 54 50 50 48 50 52 51 47 48 51 47 50 51 54 57 59 62 64 67 68 66 68 67 66 66 64 59 59 62 60 63 56 62 61 58 55 52 50 45
57 55 54 57 56 58 54 53 52 51 54 52 54 54 53 51 54 54 57 60 62 63 65 69 70 71 72 69 68 70 62 62 61 54 54 60 58 58 60 62 57 55 53 49 46
Wind_Direction
215 226 230 227 221 211 202 195 198 201 203 207 225 237 251 271 275 281 291 298 302 313 317 322 326 328 324 320 318 318 318 316 319 321 322 326 324 325 326 329 327 327 322 306 275
234 236 235 228 218 209 201 199 202 207 212 218 232 251 268 272 277 286 296 297 304 312 319 323 326 327 323 319 321 322 322 318 320 323 320 324 323 330 328 332 328 330 324 308 277
242 242 236 229 216 208 202 203 206 214 221 227 246 255 263 271 277 288 293 299 311 314 319 324 329 328 325 323 324 326 325 324 326 327 325 324 322 325 327 331 331 334 331 313 283
245 240 232 222 213 205 204 209 211 217 225 238 251 257 264 271 278 284 290 299 309 311 319 321 328 328 325 324 323 326 325 324 325 326 330 328 324 327 330 333 333 337 335 322 289
245 240 229 220 213 205 207 211 214 217 229 244 252 260 267 274 279 285 292 300 306 309 316 319 321 327 324 324 325 325 325 325 324 327 331 329 325 329 333 336 335 341 338 330 295
243 238 231 224 212 208 210 211 215 223 235 245 252 262 272 276 284 289 297 301 305 308 317 318 320 321 323 324 324 327 327 328 326 329 332 331 329 330 335 336 337 342 341 338 310
241 237 230 223 212 213 212 212 220 230 237 246 254 268 276 285 289 292 298 302 307 310 314 315 317 317 321 324 325 326 327 328 329 330 331 332 334 329 336 336 337 342 344 341 318
244 237 226 216 212 213 215 217 226 234 243 252 264 276 283 287 291 294 300 304 309 310 312 315 316 319 320 323 326 325 326 329 330 332 333 333 336 329 337 336 338 342 346 346 332
249 236 221 215 213 212 218 224 232 241 251 262 278 285 288 289 294 299 298 307 309 311 313 315 318 318 320 322 324 324 326 331 333 333 335 334 336 331 336 337 338 340 346 348 344
231 228 219 217 214 215 224 233 240 250 262 274 284 288 291 289 298 299 300 306 307 310 313 316 316 317 319 320 322 323 325 330 334 335 337 335 336 333 335 337 338 340 346 349 348
214 218 218 213 216 224 232 239 248 259 264 276 284 292 299 301 301 295 304 304 304 307 312 315 314 316 318 318 321 320 323 327 333 337 338 335 336 334 335 336 338 339 346 348 349
218 212 214 221 227 233 240 245 251 262 269 280 284 285 293 305 302 306 308 307 307 309 311 314 315 315 316 317 317 318 321 324 330 334 334 337 339 333 333 335 338 340 343 347 346
226 224 229 231 238 246 250 254 262 274 279 287 286 286 295 295 307 307 309 309 309 309 310 314 314 315 314 314 314 316 316 322 324 329 333 335 336 333 334 335 336 337 339 344 344
238 243 250 247 249 254 259 264 271 277 283 291 291 291 297 295 302 306 308 308 308 307 307 309 311 313 312 311 312 312 314 317 320 324 330 331 335 336 334 334 333 335 337 340 340
255 257 257 260 264 268 270 274 278 283 288 292 294 294 291 296 300 305 306 306 306 306 306 308 311 312 310 309 309 311 312 313 318 321 326 328 333 336 333 332 332 332 333 335 335
260 262 265 267 267 270 272 275 279 283 289 291 293 293 292 295 298 301 301 302 304 306 306 306 309 312 310 308 307 309 311 313 315 319 322 327 330 334 332 330 329 329 329 330 331
264 266 268 270 272 274 276 279 282 283 287 288 291 290 291 294 295 297 298 301 303 304 305 306 308 310 311 309 308 310 311 314 314 318 320 324 328 330 330 326 327 326 325 328 329
267 268 269 272 274 277 278 279 282 287 290 290 290 289 290 293 293 295 296 298 301 302 303 305 307 310 310 310 307 309 311 313 312 314 318 320 325 329 326 324 324 324 322 325 325
270 270 270 272 274 276 278 280 285 286 284 285 286 288 290 292 292 295 296 297 300 298 300 303 305 308 310 308 307 307 310 310 310 311 317 319 322 330 324 321 323 321 322 321 321
273 274 275 276 277 277 278 281 283 283 284 285 287 288 290 292 292 293 294 298 297 298 297 298 299 303 306 306 305 308 309 310 312 309 316 319 319 331 320 320 318 322 321 319 317
274 276 277 278 278 279 281 282 281 281 283 285 286 287 289 290 289 291 292 295 295 296 295 297 297 301 304 303 303 306 308 309 309 307 312 315 316 327 315 318 314 321 319 318 314
275 277 278 278 278 280 282 280 281 282 283 285 286 287 287 287 287 289 291 291 294 294 295 294 295 299 301 302 303 304 306 307 309 307 309 312 317 320 312 313 312 321 317 316 311
277 277 278 278 280 282 282 282 283 286 287 286 285 284 285 286 287 288 288 290 291 292 291 293 294 297 300 303 302 303 305 303 306 306 311 302 318 308 311 308 314 316 315 313 308
276 277 275 274 277 280 280 280 282 282 280 279 281 283 284 282 282 286 288 288 289 290 291 293 294 297 298 300 300 301 301 300 301 305 303 306 307 308 308 308 313 314 314 312 307
271 274 275 277 277 277 277 279 280 281 282 285 287 290 288 289 290 292 290 290 291 291 292 293 294 294 297 299 298 298 299 298 303 304 297 305 301 309 302 307 310 312 313 309 305
275 274 275 276 275 274 273 275 276 278 279 283 286 290 289 290 296 293 291 290 291 291 291 292 293 293 295 296 294 296 296 301 300 298 297 296 298 303 302 304 308 310 310 307 303
271 269 269 272 271 272 275 278 280 280 278 282 285 284 284 289 289 289 289 289 290 290 293 294 295 295 295 294 291 294 301 294 295 294 295 293 301 299 303 304 308 309 306 303 300